GEFSGL_850_meantemp_000.txt.gz
Temperature
5 5 5 5 6 7 8 8 7 7 6 5 5 5 5 5 4 4 4 4 4 5 5 5 6 6 6 6 6 6 6 6 6 7 7 6 6 6 6 6 6 6 6
2 3 4 4 4 5 6 7 6 6 5 5 4 4 3 3 3 2 2 2 2 3 3 4 5 5 4 5 5 5 6 6 6 6 6 6 5 5 6 6 6 6 6
-0 -0 1 3 3 2 4 4 4 5 4 3 3 2 2 1 0 0 1 1 1 1 1 2 2 3 3 3 3 4 4 5 5 5 5 5 4 4 5 5 5 4 5
-1 -2 -2 -1 -1 1 2 3 2 2 2 1 1 0 -0 -1 -1 -0 0 0 0 1 1 1 1 1 1 1 2 2 3 3 3 4 4 4 3 3 3 3 4 3 3
-2 -2 -2 -2 -2 -1 1 1 0 0 1 -1 -1 -2 -1 -1 -1 -1 -1 -1 -0 -0 -0 -0 -0 -0 -0 -0 0 1 1 2 2 3 2 2 2 2 2 2 2 2 2
-3 -4 -4 -3 -3 -2 -1 -2 -2 -2 -1 -2 -2 -2 -2 -3 -3 -2 -2 -2 -2 -2 -2 -2 -1 -1 -1 -1 -1 -0 0 1 1 2 2 2 1 1 0 0 -0 0 0
-4 -5 -4 -4 -4 -4 -3 -4 -4 -3 -3 -3 -3 -3 -3 -4 -4 -4 -3 -3 -3 -3 -3 -3 -3 -2 -3 -3 -2 -2 -2 -1 -1 -0 -0 -1 -1 -1 -1 -1 -1 -2 -1
-5 -5 -5 -5 -5 -5 -5 -4 -4 -4 -4 -4 -4 -4 -4 -5 -5 -5 -5 -4 -5 -4 -4 -3 -3 -4 -5 -5 -5 -5 -4 -4 -3 -2 -3 -3 -3 -2 -2 -3 -3 -2 -2
-6 -6 -6 -6 -5 -5 -5 -5 -5 -5 -5 -5 -5 -5 -6 -6 -6 -6 -6 -7 -7 -7 -6 -5 -5 -6 -7 -5 -5 -6 -6 -5 -5 -4 -3 -3 -3 -3 -2 -3 -4 -3 -2
-7 -7 -7 -6 -5 -5 -6 -6 -6 -6 -6 -6 -6 -6 -6 -7 -7 -7 -8 -8 -8 -8 -8 -7 -7 -7 -8 -7 -6 -7 -7 -7 -6 -5 -4 -4 -4 -4 -4 -4 -5 -5 -5
-8 -7 -7 -7 -7 -7 -7 -7 -8 -8 -8 -7 -7 -7 -8 -8 -8 -9 -9 -9 -9 -9 -9 -9 -9 -8 -8 -7 -7 -8 -8 -7 -6 -5 -5 -5 -5 -5 -6 -6 -6 -7 -6
-9 -8 -8 -9 -8 -8 -9 -9 -9 -9 -9 -9 -9 -9 -9 -9 -9 -9 -10 -10 -10 -10 -10 -10 -10 -8 -8 -8 -8 -7 -7 -7 -7 -6 -6 -6 -6 -6 -6 -5 -5 -6 -6
-10 -10 -10 -10 -9 -9 -10 -10 -10 -10 -10 -10 -10 -10 -10 -10 -10 -10 -10 -10 -11 -10 -11 -10 -9 -9 -9 -9 -8 -8 -8 -8 -8 -8 -9 -9 -8 -7 -7 -7 -7 -6 -6
-11 -11 -11 -10 -10 -10 -10 -10 -11 -11 -11 -10 -10 -10 -11 -11 -11 -11 -10 -10 -11 -11 -11 -10 -10 -10 -10 -9 -9 -9 -9 -10 -10 -10 -11 -10 -9 -9 -9 -9 -9 -9 -7
-11 -11 -11 -11 -11 -11 -11 -11 -11 -11 -11 -11 -11 -11 -11 -11 -11 -11 -11 -10 -10 -11 -11 -12 -12 -12 -12 -12 -12 -11 -11 -11 -12 -12 -12 -12 -12 -12 -11 -11 -11 -11 -11
-12 -12 -12 -12 -12 -12 -12 -12 -12 -11 -12 -12 -12 -12 -12 -12 -11 -11 -11 -11 -11 -11 -12 -12 -13 -13 -12 -12 -12 -12 -13 -13 -13 -13 -12 -13 -13 -13 -13 -12 -12 -12 -11
-12 -13 -13 -13 -13 -13 -13 -13 -13 -13 -13 -12 -13 -13 -13 -13 -12 -12 -12 -12 -12 -12 -12 -13 -13 -14 -13 -13 -13 -13 -13 -14 -13 -13 -13 -13 -14 -14 -14 -13 -13 -12 -12
-14 -14 -13 -13 -14 -14 -14 -14 -14 -14 -14 -13 -14 -13 -13 -14 -13 -13 -13 -13 -13 -13 -14 -14 -14 -15 -15 -15 -15 -15 -15 -15 -15 -15 -14 -14 -15 -15 -14 -14 -13 -13 -12
-15 -14 -14 -14 -15 -15 -15 -15 -15 -15 -15 -15 -14 -14 -14 -14 -14 -14 -14 -14 -14 -14 -14 -15 -15 -15 -15 -16 -16 -16 -16 -16 -16 -15 -15 -14 -15 -15 -14 -14 -14 -13 -13
-15 -15 -15 -15 -16 -15 -15 -15 -15 -15 -15 -15 -15 -15 -15 -14 -14 -14 -14 -14 -15 -15 -15 -15 -15 -15 -16 -16 -16 -16 -16 -16 -16 -16 -15 -15 -15 -15 -15 -15 -14 -14 -13
-15 -16 -16 -16 -16 -16 -15 -16 -16 -16 -16 -15 -15 -15 -15 -15 -14 -14 -15 -15 -15 -15 -15 -15 -15 -16 -16 -16 -16 -17 -17 -17 -17 -16 -16 -15 -15 -15 -15 -14 -14 -14 -13
-16 -16 -16 -16 -16 -16 -16 -16 -16 -16 -16 -15 -15 -16 -16 -16 -15 -15 -15 -15 -15 -16 -16 -16 -16 -16 -16 -16 -17 -17 -17 -17 -16 -16 -16 -15 -14 -14 -14 -13 -13 -13 -13
-16 -16 -16 -16 -16 -16 -16 -16 -16 -16 -16 -16 -16 -16 -16 -16 -16 -16 -16 -16 -16 -16 -16 -17 -17 -17 -17 -17 -17 -17 -17 -17 -16 -16 -16 -15 -14 -14 -13 -13 -13 -13 -13
-15 -16 -16 -16 -16 -16 -16 -16 -16 -15 -16 -16 -16 -16 -16 -16 -16 -17 -17 -17 -17 -17 -17 -17 -17 -17 -17 -17 -17 -17 -16 -16 -16 -15 -14 -14 -13 -13 -13 -13 -13 -13 -12
-15 -16 -15 -15 -15 -16 -16 -16 -16 -15 -16 -16 -15 -16 -16 -16 -16 -16 -16 -17 -17 -17 -17 -17 -17 -17 -17 -16 -16 -16 -16 -15 -15 -14 -14 -13 -13 -13 -13 -13 -13 -12 -12
-16 -16 -15 -15 -15 -15 -16 -16 -16 -15 -15 -15 -15 -15 -16 -16 -16 -16 -16 -16 -16 -16 -16 -16 -16 -16 -16 -16 -16 -15 -15 -15 -14 -13 -13 -13 -13 -14 -13 -13 -12 -12 -12

GEFSGL_850_meantemp_006.txt.gz
Temperature
0 0 -0 -1 -1 -0 1 2 4 5 6 5 4 4 4 5 5 5 5 5 4 4 4 4 4 5 5 5 5 6 6 6 6 6 7 7 7 7 7 6 6 6 6
-1 -1 -1 -2 -2 -2 -1 1 2 3 4 4 3 3 3 3 3 4 4 4 3 2 2 2 3 3 4 4 4 5 5 5 5 6 6 6 7 7 6 6 6 5 5
-2 -2 -3 -3 -4 -3 -2 -1 1 2 2 2 1 1 2 2 2 3 3 2 1 1 1 1 2 2 2 3 3 4 4 4 5 5 5 6 6 6 5 5 5 5 5
-3 -4 -4 -5 -5 -4 -3 -2 -1 -0 0 0 -0 -0 -0 0 0 1 1 0 0 0 0 0 1 1 1 2 2 2 3 3 4 4 4 5 5 5 4 4 4 4 4
-5 -5 -5 -5 -5 -5 -4 -3 -2 -1 -1 -1 -1 -1 -1 -1 -1 -1 -1 -1 -1 -1 -1 -1 -0 -0 -0 -0 0 1 1 2 2 3 3 3 3 3 3 3 3 3 3
-6 -6 -6 -5 -5 -5 -4 -3 -3 -2 -2 -2 -2 -2 -2 -3 -3 -3 -3 -3 -3 -2 -2 -2 -2 -2 -2 -2 -1 -1 -1 -0 0 1 1 1 2 2 2 2 2 2 2
-7 -7 -6 -5 -5 -5 -5 -4 -4 -4 -4 -3 -3 -3 -4 -4 -4 -4 -4 -4 -4 -4 -4 -4 -4 -5 -4 -3 -3 -2 -2 -2 -1 -1 -1 -0 -0 0 0 0 1 0 1
-8 -7 -7 -6 -6 -6 -6 -6 -5 -5 -5 -5 -5 -5 -5 -6 -6 -5 -5 -5 -5 -5 -5 -5 -5 -6 -5 -4 -4 -4 -4 -4 -3 -2 -2 -2 -2 -2 -2 -1 -1 -1 -1
-8 -8 -8 -8 -7 -7 -7 -7 -7 -6 -6 -6 -6 -7 -7 -7 -7 -7 -6 -7 -7 -7 -7 -7 -7 -7 -7 -6 -5 -5 -5 -6 -5 -5 -4 -3 -3 -4 -4 -3 -3 -3 -2
-9 -9 -9 -9 -8 -8 -8 -8 -8 -8 -7 -7 -8 -8 -8 -8 -8 -8 -8 -7 -8 -8 -8 -8 -9 -8 -8 -7 -7 -6 -6 -6 -6 -6 -5 -5 -6 -6 -6 -5 -5 -4 -4
-10 -9 -10 -9 -9 -9 -9 -9 -9 -9 -8 -8 -8 -8 -9 -9 -9 -9 -9 -8 -8 -9 -9 -9 -9 -9 -9 -8 -8 -7 -7 -7 -7 -7 -7 -7 -7 -6 -6 -6 -6 -6 -6
-10 -10 -10 -10 -10 -10 -10 -10 -10 -9 -9 -9 -9 -9 -9 -9 -9 -9 -10 -10 -9 -9 -9 -9 -9 -9 -9 -9 -8 -8 -8 -7 -7 -7 -8 -8 -8 -7 -7 -7 -7 -6 -6
-11 -11 -11 -11 -11 -11 -10 -10 -10 -10 -10 -10 -10 -10 -10 -10 -10 -10 -10 -10 -10 -10 -10 -10 -10 -10 -9 -9 -9 -10 -9 -8 -8 -8 -8 -8 -8 -8 -8 -8 -7 -7 -7
-12 -12 -12 -12 -12 -12 -11 -11 -11 -11 -11 -11 -11 -11 -11 -11 -11 -10 -10 -10 -10 -10 -10 -11 -11 -11 -11 -11 -11 -10 -10 -10 -10 -10 -9 -9 -9 -9 -9 -9 -8 -8 -7
-13 -13 -13 -13 -13 -13 -13 -12 -12 -12 -12 -12 -12 -12 -12 -12 -12 -11 -11 -11 -10 -10 -11 -11 -11 -11 -11 -11 -11 -11 -11 -11 -11 -11 -10 -10 -10 -10 -10 -10 -10 -9 -9
-14 -14 -14 -14 -14 -14 -14 -14 -13 -13 -12 -12 -13 -13 -13 -13 -12 -12 -12 -11 -11 -12 -12 -12 -12 -12 -12 -12 -12 -12 -12 -12 -12 -12 -11 -11 -11 -11 -11 -10 -11 -10 -10
-15 -15 -14 -15 -15 -15 -15 -15 -14 -14 -14 -14 -14 -13 -13 -13 -13 -13 -12 -12 -12 -12 -13 -13 -13 -13 -13 -13 -14 -14 -14 -14 -14 -13 -13 -13 -13 -12 -12 -12 -12 -12 -12
-15 -15 -15 -15 -15 -15 -15 -15 -15 -15 -15 -15 -15 -14 -14 -14 -14 -13 -13 -13 -13 -13 -14 -14 -14 -14 -14 -14 -14 -15 -15 -15 -15 -15 -14 -14 -14 -14 -13 -13 -13 -13 -13
-15 -15 -15 -15 -15 -15 -15 -15 -15 -15 -15 -15 -15 -15 -15 -15 -14 -14 -14 -14 -14 -14 -14 -14 -14 -14 -15 -15 -15 -15 -15 -15 -16 -16 -15 -15 -15 -15 -14 -14 -14 -14 -14
-15 -15 -15 -15 -15 -15 -15 -15 -15 -15 -15 -15 -15 -15 -15 -15 -15 -15 -15 -15 -15 -15 -15 -15 -15 -15 -15 -15 -15 -16 -16 -16 -16 -16 -16 -16 -16 -16 -15 -15 -15 -14 -14
-15 -15 -15 -15 -16 -15 -15 -15 -15 -15 -15 -15 -15 -15 -15 -15 -15 -16 -16 -16 -16 -16 -16 -16 -16 -16 -16 -16 -16 -16 -16 -16 -16 -16 -16 -16 -16 -16 -16 -16 -15 -15 -14
-15 -15 -15 -16 -16 -15 -15 -15 -15 -15 -15 -15 -15 -15 -15 -15 -15 -16 -16 -16 -16 -16 -16 -16 -16 -16 -16 -16 -16 -16 -16 -16 -16 -16 -16 -16 -16 -16 -16 -15 -15 -14 -14
-15 -15 -15 -15 -15 -15 -15 -15 -15 -15 -15 -15 -15 -15 -15 -15 -15 -15 -15 -16 -16 -16 -16 -16 -16 -16 -16 -16 -16 -17 -17 -16 -16 -16 -16 -16 -16 -15 -15 -14 -14 -14 -13
-15 -15 -15 -15 -15 -15 -15 -15 -15 -15 -15 -15 -15 -15 -15 -15 -15 -15 -15 -15 -15 -16 -16 -16 -16 -16 -16 -16 -16 -16 -16 -16 -16 -16 -16 -15 -15 -14 -14 -13 -13 -14 -14
-14 -15 -15 -15 -15 -15 -15 -15 -15 -15 -15 -15 -15 -15 -15 -15 -15 -15 -15 -15 -15 -15 -16 -16 -16 -16 -16 -16 -16 -16 -16 -16 -16 -15 -15 -14 -14 -14 -14 -14 -14 -14 -14
-15 -15 -16 -16 -16 -16 -16 -16 -15 -15 -15 -15 -15 -15 -15 -15 -15 -15 -15 -15 -15 -15 -15 -15 -16 -16 -16 -16 -16 -16 -16 -15 -15 -14 -14 -14 -14 -14 -14 -14 -14 -14 -13

GEFSGL_850_meantemp_012.txt.gz
Temperature
-6 -6 -6 -6 -6 -5 -5 -5 -4 -4 -3 -2 -0 1 2 3 3 4 4 4 4 5 5 5 5 5 5 5 6 6 6 6 6 6 7 7 7 7 7 7 7 7 7
-7 -7 -7 -6 -6 -5 -5 -5 -4 -3 -2 -1 -0 1 1 2 2 3 3 3 3 4 4 4 4 4 4 4 5 5 5 5 5 6 6 6 6 6 6 6 6 6 6
-8 -8 -7 -7 -6 -6 -6 -5 -5 -4 -3 -2 -1 -0 0 1 1 2 2 2 2 2 3 3 3 2 2 3 3 4 4 4 5 5 5 6 6 6 6 6 6 6 6
-9 -9 -8 -8 -7 -7 -6 -6 -5 -5 -4 -3 -2 -2 -1 -1 -0 -0 0 0 1 1 1 1 1 1 1 1 2 2 3 3 4 4 4 5 5 5 5 5 5 5 5
-9 -9 -9 -8 -8 -7 -7 -7 -6 -6 -5 -4 -4 -3 -3 -3 -2 -2 -2 -1 -1 -1 -1 -1 -1 -0 -0 0 1 1 1 2 2 3 3 4 4 4 4 5 5 4 4
-10 -10 -9 -9 -9 -8 -8 -8 -7 -7 -6 -5 -5 -5 -5 -4 -4 -4 -3 -3 -3 -3 -3 -2 -2 -2 -2 -1 -1 -1 -0 0 1 2 2 3 3 3 3 4 4 4 3
-10 -10 -10 -10 -10 -9 -9 -9 -8 -8 -7 -7 -7 -6 -6 -6 -6 -5 -5 -5 -5 -5 -5 -5 -4 -4 -3 -3 -2 -2 -2 -2 -1 -0 0 1 1 2 2 2 3 2 2
-10 -10 -11 -10 -10 -10 -10 -9 -9 -9 -8 -8 -8 -8 -7 -7 -6 -7 -7 -7 -7 -7 -6 -6 -6 -6 -5 -5 -4 -4 -4 -3 -3 -2 -2 -1 -1 -0 0 1 1 1 1
-11 -11 -11 -11 -11 -11 -10 -10 -10 -9 -9 -9 -9 -9 -9 -8 -7 -8 -8 -8 -8 -7 -7 -8 -7 -7 -7 -6 -6 -5 -5 -5 -5 -5 -4 -4 -3 -2 -2 -1 -1 -1 -1
-12 -12 -12 -12 -12 -12 -11 -11 -11 -10 -10 -9 -9 -9 -9 -9 -9 -8 -8 -8 -8 -8 -8 -8 -8 -9 -8 -8 -7 -6 -6 -6 -6 -6 -6 -5 -5 -5 -4 -4 -3 -3 -3
-13 -13 -13 -13 -13 -13 -12 -12 -12 -11 -11 -10 -10 -10 -10 -9 -9 -9 -9 -9 -9 -9 -9 -9 -9 -9 -9 -9 -9 -8 -8 -7 -7 -7 -7 -7 -7 -6 -6 -6 -5 -5 -5
-14 -14 -14 -14 -14 -14 -13 -13 -12 -12 -12 -11 -11 -11 -10 -10 -10 -9 -9 -9 -9 -9 -10 -10 -10 -10 -10 -10 -9 -9 -9 -8 -8 -8 -8 -8 -8 -7 -7 -7 -6 -6 -6
-14 -15 -15 -15 -15 -15 -14 -14 -13 -13 -12 -12 -12 -12 -12 -11 -11 -10 -10 -10 -10 -10 -10 -10 -10 -10 -10 -10 -10 -10 -9 -9 -9 -9 -9 -9 -8 -8 -8 -8 -7 -7 -7
-15 -15 -15 -15 -15 -15 -15 -15 -14 -14 -13 -13 -13 -13 -13 -12 -12 -12 -11 -11 -11 -10 -10 -10 -11 -11 -11 -11 -11 -11 -11 -10 -10 -10 -10 -10 -10 -9 -9 -9 -8 -8 -8
-15 -15 -15 -15 -15 -15 -15 -15 -15 -15 -14 -14 -14 -13 -13 -13 -12 -12 -12 -11 -11 -11 -11 -11 -11 -12 -12 -12 -12 -12 -12 -12 -12 -12 -11 -11 -11 -11 -10 -10 -10 -9 -9
-15 -15 -16 -15 -16 -16 -15 -15 -15 -15 -15 -15 -14 -14 -14 -13 -13 -13 -12 -12 -12 -12 -12 -12 -12 -13 -13 -13 -13 -13 -13 -13 -13 -13 -13 -12 -12 -12 -12 -11 -11 -11 -10
-15 -15 -15 -15 -15 -16 -16 -15 -15 -15 -15 -15 -15 -15 -14 -14 -14 -14 -14 -13 -13 -13 -13 -13 -13 -14 -14 -14 -14 -14 -14 -14 -14 -14 -14 -14 -14 -13 -13 -13 -12 -12 -12
-15 -15 -15 -15 -15 -15 -15 -15 -15 -15 -15 -15 -15 -15 -15 -15 -15 -15 -15 -14 -14 -14 -14 -14 -14 -14 -14 -15 -15 -15 -15 -15 -15 -15 -15 -15 -15 -14 -14 -14 -14 -13 -13
-14 -14 -14 -15 -15 -15 -15 -15 -15 -15 -15 -15 -15 -15 -15 -15 -15 -15 -15 -15 -15 -15 -15 -15 -15 -15 -15 -15 -15 -15 -15 -16 -16 -16 -16 -16 -16 -15 -15 -15 -15 -14 -14
-14 -14 -14 -14 -14 -15 -15 -15 -15 -15 -15 -15 -15 -15 -15 -15 -15 -15 -15 -16 -16 -16 -16 -16 -16 -16 -16 -16 -16 -16 -16 -16 -16 -16 -16 -16 -16 -16 -15 -15 -15 -15 -15
-13 -14 -14 -14 -15 -15 -15 -16 -15 -15 -15 -15 -15 -15 -15 -15 -15 -15 -15 -15 -15 -16 -16 -16 -16 -16 -16 -16 -16 -16 -16 -16 -16 -16 -16 -16 -16 -16 -16 -15 -15 -15 -15
-13 -14 -14 -14 -15 -15 -16 -16 -16 -16 -16 -16 -15 -15 -15 -15 -15 -15 -15 -15 -15 -15 -16 -16 -16 -16 -16 -16 -16 -16 -16 -16 -16 -16 -16 -16 -16 -16 -16 -15 -15 -15 -15
-13 -13 -13 -13 -14 -15 -15 -15 -16 -16 -16 -16 -16 -16 -15 -15 -15 -15 -15 -15 -15 -15 -15 -16 -16 -16 -16 -16 -16 -16 -16 -16 -16 -16 -16 -16 -15 -15 -15 -15 -15 -14 -14
-11 -12 -12 -13 -13 -14 -14 -14 -15 -15 -15 -16 -16 -16 -15 -15 -15 -15 -15 -15 -15 -15 -15 -15 -16 -16 -16 -16 -16 -16 -16 -16 -16 -15 -15 -15 -15 -15 -14 -14 -14 -14 -14
-10 -11 -12 -12 -13 -14 -14 -14 -14 -14 -14 -15 -15 -15 -15 -15 -15 -15 -15 -15 -15 -15 -15 -15 -15 -15 -15 -15 -15 -15 -15 -15 -15 -15 -15 -15 -14 -14 -14 -14 -14 -14 -14
-10 -11 -12 -12 -13 -13 -13 -13 -13 -13 -14 -14 -15 -15 -15 -15 -15 -15 -15 -15 -15 -15 -15 -15 -15 -15 -15 -15 -15 -15 -15 -15 -14 -14 -14 -14 -14 -14 -14 -14 -14 -14 -14

GEFSGL_850_meantemp_018.txt.gz
Temperature
-9 -10 -9 -9 -9 -9 -8 -8 -8 -8 -7 -7 -6 -5 -4 -3 -2 -1 -0 0 1 2 3 3 4 4 4 5 5 6 6 6 7 7 7 8 8 7 7 7 7 7 7
-10 -10 -10 -10 -10 -9 -9 -9 -8 -8 -8 -7 -6 -5 -5 -4 -3 -2 -1 -0 0 1 2 2 2 3 3 4 4 5 5 6 6 6 6 7 7 7 7 7 7 7 7
-10 -10 -10 -10 -10 -10 -10 -9 -9 -9 -8 -8 -7 -6 -5 -5 -4 -4 -3 -2 -1 -0 0 1 1 1 2 2 3 4 4 5 5 5 5 6 6 6 6 6 6 6 6
-11 -11 -11 -11 -11 -11 -11 -10 -10 -9 -9 -8 -8 -7 -6 -6 -5 -5 -4 -3 -2 -2 -1 -1 0 0 1 1 2 2 3 4 4 4 5 5 5 6 6 6 6 6 5
-12 -12 -12 -12 -12 -12 -12 -11 -11 -10 -10 -9 -8 -8 -7 -6 -6 -6 -5 -5 -4 -3 -3 -2 -2 -1 -0 0 1 1 2 2 3 3 3 4 4 5 5 5 5 5 5
-13 -13 -13 -13 -13 -13 -13 -12 -12 -11 -10 -10 -9 -9 -8 -7 -6 -6 -7 -6 -6 -5 -5 -4 -3 -3 -2 -1 -1 -0 0 1 1 2 2 2 3 4 4 5 5 5 4
-13 -13 -14 -14 -14 -14 -14 -13 -13 -12 -11 -11 -10 -9 -9 -8 -7 -7 -8 -8 -7 -7 -7 -6 -5 -5 -4 -3 -2 -2 -1 -1 -0 0 1 1 2 2 3 3 4 4 4
-13 -14 -14 -14 -14 -14 -14 -14 -13 -13 -12 -12 -11 -10 -9 -9 -8 -8 -8 -8 -8 -8 -8 -8 -7 -7 -6 -5 -4 -4 -3 -3 -2 -1 -1 -1 -0 1 1 2 3 3 3
-14 -14 -14 -15 -14 -15 -14 -14 -14 -13 -13 -12 -12 -11 -10 -10 -9 -9 -9 -9 -9 -9 -9 -8 -8 -8 -7 -7 -6 -5 -5 -5 -5 -4 -3 -3 -2 -1 -0 1 1 1 1
-14 -14 -14 -15 -15 -15 -15 -14 -14 -14 -13 -13 -13 -12 -12 -11 -10 -9 -9 -9 -9 -9 -9 -9 -9 -8 -8 -8 -7 -7 -6 -6 -6 -6 -5 -5 -4 -3 -3 -1 -1 -0 0
-14 -14 -14 -14 -15 -15 -15 -14 -14 -14 -14 -13 -13 -13 -12 -12 -11 -10 -10 -9 -10 -10 -10 -10 -9 -9 -9 -9 -8 -8 -8 -8 -7 -7 -7 -7 -6 -6 -5 -4 -3 -3 -2
-14 -14 -14 -14 -15 -15 -15 -15 -14 -14 -14 -14 -14 -14 -13 -12 -12 -11 -11 -10 -10 -10 -10 -10 -10 -9 -10 -10 -10 -10 -9 -9 -9 -8 -8 -8 -7 -7 -7 -6 -6 -5 -5
-14 -14 -14 -14 -14 -14 -15 -15 -15 -15 -15 -15 -15 -14 -14 -13 -12 -12 -12 -11 -11 -11 -10 -10 -10 -10 -10 -11 -11 -10 -10 -10 -10 -9 -9 -9 -8 -8 -8 -7 -7 -7 -7
-13 -13 -13 -14 -14 -14 -15 -15 -15 -15 -15 -15 -15 -15 -14 -14 -13 -12 -12 -12 -11 -11 -11 -11 -11 -12 -12 -12 -12 -11 -11 -11 -11 -10 -10 -10 -10 -9 -9 -9 -8 -8 -7
-13 -13 -13 -14 -14 -15 -15 -15 -15 -15 -15 -15 -15 -15 -15 -14 -13 -13 -13 -12 -12 -12 -12 -12 -12 -12 -12 -12 -13 -13 -12 -12 -12 -12 -11 -11 -11 -10 -10 -10 -9 -9 -9
-13 -13 -14 -15 -15 -15 -15 -15 -15 -15 -15 -15 -15 -15 -15 -14 -14 -14 -14 -14 -13 -13 -12 -13 -13 -13 -13 -13 -14 -14 -14 -14 -13 -13 -13 -12 -12 -11 -11 -11 -11 -10 -10
-13 -13 -14 -15 -15 -15 -15 -15 -15 -15 -15 -15 -15 -15 -15 -14 -14 -14 -15 -15 -14 -14 -14 -14 -14 -14 -14 -14 -14 -15 -15 -15 -15 -14 -14 -14 -13 -13 -12 -12 -12 -12 -11
-12 -13 -14 -14 -14 -14 -15 -15 -15 -15 -15 -15 -15 -15 -15 -15 -15 -15 -15 -15 -15 -15 -15 -15 -15 -15 -15 -15 -15 -15 -15 -15 -15 -15 -15 -15 -15 -14 -14 -14 -13 -13 -13
-11 -12 -14 -14 -14 -14 -14 -15 -15 -15 -15 -16 -16 -15 -15 -15 -15 -15 -15 -15 -15 -15 -15 -15 -15 -15 -15 -15 -15 -15 -16 -16 -16 -16 -16 -16 -16 -15 -15 -15 -14 -14 -14
-11 -12 -13 -13 -13 -14 -14 -14 -15 -15 -15 -15 -16 -16 -15 -15 -15 -15 -15 -15 -15 -15 -15 -15 -15 -16 -16 -16 -16 -16 -16 -16 -16 -16 -16 -16 -16 -16 -16 -15 -15 -15 -15
-11 -11 -12 -12 -13 -14 -14 -14 -14 -15 -15 -15 -15 -16 -15 -15 -15 -15 -15 -15 -15 -15 -15 -15 -15 -15 -16 -16 -16 -16 -16 -16 -16 -16 -16 -16 -16 -16 -16 -16 -15 -15 -15
-11 -11 -12 -13 -13 -14 -14 -14 -14 -14 -14 -15 -15 -15 -16 -16 -15 -15 -15 -15 -15 -15 -15 -15 -15 -15 -15 -16 -16 -16 -16 -16 -16 -16 -16 -16 -16 -16 -16 -16 -15 -15 -15
-11 -11 -12 -13 -13 -14 -14 -14 -14 -14 -14 -14 -15 -15 -16 -16 -15 -15 -15 -15 -15 -15 -15 -15 -15 -15 -15 -15 -15 -16 -16 -16 -16 -16 -16 -16 -16 -16 -15 -15 -15 -15 -15
-10 -11 -12 -13 -13 -13 -13 -14 -14 -14 -15 -15 -15 -15 -16 -16 -16 -15 -15 -15 -15 -15 -15 -15 -15 -15 -15 -15 -15 -15 -15 -15 -15 -15 -15 -15 -15 -15 -15 -15 -15 -14 -14
-10 -11 -12 -13 -12 -12 -13 -13 -14 -15 -15 -15 -15 -15 -16 -16 -15 -15 -15 -15 -15 -14 -14 -15 -15 -15 -15 -15 -15 -15 -14 -14 -14 -14 -14 -14 -14 -14 -14 -14 -14 -14 -14
-10 -11 -12 -12 -12 -12 -12 -13 -13 -14 -15 -15 -15 -15 -15 -15 -15 -15 -15 -15 -14 -14 -14 -14 -14 -15 -14 -14 -14 -14 -14 -14 -14 -14 -14 -14 -14 -14 -14 -15 -15 -15 -15

GEFSGL_850_meantemp_024.txt.gz
Temperature
-12 -12 -12 -12 -12 -12 -12 -12 -12 -12 -11 -11 -10 -9 -9 -8 -7 -7 -6 -6 -5 -4 -2 -1 -1 0 1 1 2 3 4 4 5 7 7 7 8 9 9 9 9 9 10
-12 -12 -12 -12 -13 -13 -13 -13 -13 -13 -12 -12 -11 -10 -9 -8 -7 -7 -7 -6 -6 -5 -3 -2 -1 -0 0 1 2 2 3 4 4 5 6 7 8 8 8 8 8 8 9
-12 -12 -13 -13 -13 -13 -13 -13 -13 -13 -13 -12 -11 -11 -10 -9 -8 -7 -7 -7 -6 -5 -4 -4 -3 -2 -0 0 1 2 3 3 4 4 5 6 7 7 7 7 7 7 7
-12 -13 -13 -13 -14 -14 -14 -14 -13 -13 -13 -13 -12 -11 -10 -9 -8 -8 -7 -7 -7 -6 -5 -4 -3 -3 -2 -0 0 1 2 3 3 4 4 5 6 6 6 6 6 6 6
-12 -12 -13 -13 -13 -14 -14 -14 -14 -13 -13 -13 -13 -12 -11 -10 -9 -8 -7 -8 -7 -7 -6 -5 -4 -3 -2 -1 -0 0 1 2 2 3 4 4 5 5 5 6 5 5 5
-12 -12 -13 -13 -13 -14 -14 -14 -14 -14 -13 -13 -13 -13 -12 -11 -10 -8 -8 -8 -8 -8 -7 -6 -5 -4 -3 -2 -1 -1 -0 1 1 2 2 3 4 4 5 5 5 5 4
-12 -12 -12 -13 -13 -14 -14 -14 -14 -14 -14 -13 -13 -13 -12 -12 -10 -9 -8 -8 -8 -8 -8 -7 -7 -6 -5 -3 -3 -2 -1 -1 -0 1 1 2 2 3 4 4 4 4 4
-11 -12 -12 -13 -14 -14 -14 -14 -14 -14 -14 -14 -14 -13 -13 -12 -11 -9 -9 -9 -9 -9 -8 -8 -7 -7 -6 -5 -4 -3 -3 -2 -2 -1 -0 -0 1 2 2 3 3 3 3
-11 -12 -13 -14 -14 -14 -14 -14 -14 -15 -14 -14 -14 -13 -13 -12 -11 -10 -9 -9 -9 -9 -8 -8 -8 -7 -7 -6 -5 -5 -5 -4 -4 -3 -2 -2 -1 0 1 2 2 2 2
-12 -12 -13 -14 -14 -15 -15 -15 -15 -15 -14 -14 -14 -13 -13 -12 -12 -11 -10 -9 -9 -9 -9 -8 -8 -8 -8 -7 -7 -7 -7 -6 -5 -4 -3 -3 -2 -1 -0 0 1 1 2
-11 -12 -13 -14 -14 -15 -15 -15 -15 -15 -14 -14 -14 -13 -13 -13 -12 -11 -11 -10 -10 -9 -9 -9 -9 -9 -9 -9 -9 -9 -9 -8 -7 -6 -5 -5 -4 -3 -2 -1 -1 0 1
-11 -12 -13 -13 -14 -14 -14 -15 -15 -14 -14 -14 -14 -13 -13 -13 -12 -12 -11 -11 -10 -10 -10 -10 -10 -10 -10 -10 -10 -10 -9 -9 -8 -8 -7 -7 -6 -6 -5 -4 -3 -2 -1
-11 -12 -13 -14 -14 -14 -14 -14 -14 -14 -14 -14 -14 -13 -13 -13 -13 -12 -12 -11 -11 -11 -11 -11 -11 -10 -10 -10 -11 -10 -10 -10 -10 -9 -9 -9 -9 -9 -8 -7 -6 -5 -4
-12 -13 -14 -14 -14 -14 -14 -14 -14 -14 -14 -13 -13 -13 -13 -13 -13 -13 -12 -12 -12 -12 -12 -12 -12 -12 -11 -12 -11 -11 -11 -11 -11 -11 -11 -10 -10 -10 -9 -9 -8 -8 -7
-12 -13 -14 -14 -13 -14 -14 -14 -14 -14 -14 -14 -14 -14 -13 -13 -13 -13 -13 -13 -13 -13 -13 -13 -13 -13 -13 -13 -13 -13 -13 -12 -12 -12 -11 -11 -11 -10 -10 -9 -9 -9 -9
-12 -13 -13 -13 -13 -14 -14 -14 -14 -14 -14 -14 -14 -14 -14 -14 -14 -14 -14 -14 -14 -14 -13 -14 -14 -14 -14 -14 -14 -14 -14 -14 -14 -13 -13 -12 -12 -11 -11 -10 -10 -9 -9
-12 -13 -13 -13 -14 -14 -14 -14 -14 -14 -15 -15 -15 -15 -14 -14 -14 -14 -14 -15 -14 -14 -14 -14 -15 -15 -15 -15 -15 -15 -15 -15 -15 -14 -14 -14 -13 -13 -12 -12 -11 -11 -10
-12 -13 -13 -14 -14 -14 -14 -15 -15 -15 -15 -15 -15 -15 -15 -14 -14 -15 -15 -15 -15 -15 -15 -15 -15 -15 -15 -15 -15 -15 -15 -15 -15 -15 -15 -15 -14 -14 -14 -13 -13 -12 -12
-12 -12 -13 -13 -14 -14 -14 -14 -14 -15 -15 -15 -15 -15 -15 -15 -15 -15 -15 -15 -15 -15 -15 -15 -15 -15 -15 -15 -15 -15 -16 -16 -16 -16 -16 -15 -15 -15 -15 -15 -15 -14 -13
-11 -12 -13 -13 -13 -14 -14 -14 -15 -15 -15 -15 -15 -15 -15 -15 -15 -15 -15 -15 -15 -15 -15 -15 -15 -15 -15 -15 -15 -16 -16 -16 -16 -16 -16 -16 -16 -15 -15 -15 -15 -15 -15
-10 -11 -12 -13 -13 -14 -14 -14 -15 -15 -15 -15 -15 -15 -15 -15 -15 -15 -15 -15 -15 -15 -15 -15 -15 -15 -15 -15 -15 -15 -15 -16 -16 -16 -16 -16 -16 -16 -16 -15 -15 -15 -15
-10 -10 -11 -12 -13 -13 -14 -14 -14 -15 -15 -15 -15 -15 -15 -15 -15 -15 -15 -15 -15 -15 -15 -15 -15 -15 -15 -15 -15 -15 -15 -15 -16 -16 -16 -15 -15 -15 -15 -15 -15 -15 -15
-9 -10 -11 -12 -12 -13 -13 -13 -14 -14 -15 -15 -15 -15 -15 -15 -15 -15 -15 -15 -15 -15 -14 -14 -15 -15 -15 -15 -15 -15 -15 -15 -15 -15 -15 -15 -15 -15 -15 -15 -15 -15 -15
-9 -9 -10 -11 -11 -12 -12 -13 -13 -13 -14 -14 -14 -15 -15 -15 -15 -15 -15 -15 -14 -14 -14 -14 -14 -14 -14 -15 -15 -15 -14 -14 -14 -14 -14 -14 -14 -15 -15 -15 -15 -15 -14
-9 -9 -9 -10 -11 -11 -11 -12 -12 -12 -13 -13 -13 -14 -14 -14 -14 -14 -14 -14 -14 -14 -14 -14 -14 -14 -14 -14 -14 -14 -14 -14 -14 -14 -14 -14 -14 -14 -14 -14 -14 -14 -14
-8 -9 -9 -10 -10 -10 -11 -11 -11 -11 -12 -12 -12 -13 -13 -13 -13 -13 -14 -14 -14 -14 -14 -14 -14 -14 -14 -14 -14 -14 -14 -14 -14 -14 -14 -14 -14 -14 -14 -14 -14 -14 -14